Regional Weather Roundup
Issued by NWS Wilmington, NC

Home | Current Version | Previous Version | Text Only | Print | Product List | Glossary On
Versions: 1 2 3 4 5 6 7 8 9 10 11 12 13 14 15 16 17 18 19 20 21 22 23 24 25 26 27 28 29 30 31 32 33 34 35 36 37 38 39 40 41 42 43 44 45 46 47 48 49 50
000
ASUS42 KILM 230710
RWRILM
RWRILM
REGIONAL HOURLY WEATHER ROUNDUP
NATIONAL WEATHER SERVICE WILMINGTON NC
300 AM EDT WED JUL 23 2014

NOTE: "FAIR" INDICATES FEW OR NO CLOUDS BELOW 12,000 FEET WITH NO
SIGNIFICANT WEATHER AND/OR OBSTRUCTIONS TO VISIBILITY.

...............WFO WILMINGTON COUNTY WARNING AREA...............

......COASTAL NC AND SC COUNTIES......

CITY           SKY/WX    TMP DP  RH WIND       PRES   REMARKS
WILMINGTON     CLEAR     74  73  97 CALM      30.07F
SOUTHPORT      PTCLDY    78  73  84 SW6       30.07F
N MYRTLE BEACH PTCLDY    77  73  87 NW3       30.07F
MYRTLE BEACH   PTCLDY    75  73  94 CALM      30.07F

......INLAND NC AND SC COUNTIES.......

CITY           SKY/WX    TMP DP  RH WIND       PRES   REMARKS
LUMBERTON      MOCLDY    75  74  96 CALM      30.07F FOG
ELIZABETHTOWN  CLEAR     74  74 100 CALM      30.07F
WHITEVILLE     PTCLDY    74  72  96 CALM      30.07F
FLORENCE       PTCLDY    75  73  93 S3        30.07F
DARLINGTON     PTCLDY    75  72  88 S3        30.08F

....................REST OF NORTH CAROLINA......................

.........EASTERN NC.........

CITY           SKY/WX    TMP DP  RH WIND       PRES   REMARKS
CAPE HATTERAS  MOCLDY    78  75  90 W6        30.06F
JACKSONVILLE   PTCLDY    73  72  94 SW3       30.07F
MOREHEAD CITY  PTCLDY    79  74  84 SW9       30.07F
KENANSVILLE    CLOUDY    75  73  94 CALM      30.08S
NEW BERN       PTCLDY    76  73  91 SW3       30.08F
ELIZABETH CITY PTCLDY    73  72  96 CALM      30.05F

.........CENTRAL NC.........

CITY           SKY/WX    TMP DP  RH WIND       PRES   REMARKS
RALEIGH DURHAM PTCLDY    72  69  90 CALM      30.07F
ROCKY MOUNT    CLOUDY    74  72  93 CALM      30.06F
ROANOKE RAPIDS NOT AVBL
FAYETTEVILLE   CLEAR     76  74  93 S6        30.06F
HOFFMAN        PTCLDY    73  72  96 SW1       30.08F

.........WESTERN NC.........

CITY           SKY/WX    TMP DP  RH WIND       PRES   REMARKS
CHARLOTTE      PTCLDY    71  68  90 N3        30.09F
GREENSBORO     PTCLDY    71  69  93 CALM      30.09F
HICKORY        NOT AVBL
BOONE          NOT AVBL
ASHEVILLE      NOT AVBL

.....................REST OF SOUTH CAROLINA.....................

.........EASTERN SC.........

CITY           SKY/WX    TMP DP  RH WIND       PRES   REMARKS
CHARLESTON     PTCLDY    77  74  90 CALM      30.06F
BEAUFORT MCAS  PTCLDY    76  74  93 CALM      30.07S
HILTON HEAD    NOT AVBL

.........CENTRAL SC.........

CITY           SKY/WX    TMP DP  RH WIND       PRES   REMARKS
COLUMBIA       PTCLDY    78  73  84 SE3       30.06F
ORANGEBURG     PTCLDY    75  73  93 CALM      30.07F
SUMTER SHAW    MOCLDY    75  75 100 SE1       30.06F

.........WESTERN SC.........

CITY           SKY/WX    TMP DP  RH WIND       PRES   REMARKS
GREENVILLE     NOT AVBL
ROCK HILL      PTCLDY    70  70 100 CALM      30.09F FOG
ANDERSON       MOCLDY    73  71  93 CALM      30.09F
CLEMSON        NOT AVBL
GREENWOOD      MOCLDY    72  70  93 CALM      30.10F


...................COASTAL AND OFFSHORE REPORTS..................

................LOCAL PIERS AND NC RESERVE................


STATION/POSITION TIME  SKY/WX   TEMP    WIND        PRES    VSBY
                                AIR SEA DIR/SP/G
                 (UTC)          (F)     (DEG/KT/KT) (MB)    (MI)
JOHNY MRCER PIER 0700            77 83  240/  4/  5 1017.8S
NC RESRV MASNBRO 0600            76        CALM     1019.0S
OCEAN CREST PIER NOT AVBL
SPRINGMAID  PIER 0700            76 83  310/  4/  5 1018.3F


................COASTAL AND OFFSHORE BUOYS................


STATION/POSITION TIME  SKY/WX   TEMP    WIND        PRES    VSBY
                                AIR SEA DIR/SP/G
                 (UTC)          (F)     (DEG/KT/KT) (MB)    (MI)
DIMNDSHOAL 41025 0700                   VRB 16/ 19  1017.6F
WVE H/P(F/S)=  4/ 7 WND WVE H/P(F/S)=  3/ 5 SWL H/P/D(F/S/D)=  2/140/ 7

CAPE LOOKOUT     0600            79     230/  9/ 12 1018.6F
ONSLOW BAY 41036 0700            80 80  240/ 12/ 14 1018.6F
WVE H/P(F/S)=  4/ 5 WND WVE H/P(F/S)=  3/ 5 SWL H/P/D(F/S/D)=  2/150/ 6

5 WRITEBCH 41038 0600            76 81  230/ 10/ 12   N/A
MASONBORO  41110 0700               81                N/A
WVE H/P(F/S)=  3/ 7 WND WVE H/P(F/S)=  3/ 7

WILM HARBR 41108 NOT AVBL
27WRITEBCH 41037 0600            76 80  230/ 14/ 16 1018.6F
FRYING PAN 41013 NOT AVBL
SUNST NRSH 41024 0600            80     210/ 10/ 12 1018.4F
CAPRS NRSH 41029 0600            80     200/  8/ 10   N/A
EDISTO     41004 0700            81 82  170/  8/ 12 1017.3F
WVE H/P(F/S)=  3/ 6 WND WVE H/P(F/S)=  2/ 4 SWL H/P/D(F/S/D)=  3/ 6



..........OFFSHORE BUOYS BEYOND 100 NM OFFSHORE...........
.....IN A TRIANGLE---HAT TO BERMUDA TO BAHAMAS TO HAT.....


STATION/POSITION TIME  SKY/WX   TEMP    WIND        PRES    VSBY
                                AIR SEA DIR/SP/G
                 (UTC)          (F)     (DEG/KT/KT) (MB)    (MI)
150E HAT   41001 NOT AVBL
W BERMUDA  41048 0604            81 83  210/  8/ 12 1021.7F
WVE H/P(F/S)=  3/ 8 WND WVE H/P(F/S)=  2/ 4 SWL H/P/D(F/S/D)=  2/130/ 8

ATLANTIC S 41049 0637            81 83  120/  4/  6 1022.1S
WVE H/P(F/S)=  3/ 8 SWL H/P/D(F/S/D)=  3/140/ 8

E BAHAMAS  41046 0631            82 84  110/ 14/ 16 1019.4F
WVE H/P(F/S)=  4/ 6 WND WVE H/P(F/S)=  3/ 6 SWL H/P/D(F/S/D)=  2/120/ 9

NE BAHAMAS 41047 0645            82 84  110/ 10/ 12 1021.0F
WVE H/P(F/S)=  3/ 6 WND WVE H/P(F/S)=  2/ 4 SWL H/P/D(F/S/D)=  3/140/ 6

120E CANVRL41010 0700            83 84  150/ 16/ 17 1018.0F
WVE H/P(F/S)=  4/ 8 WND WVE H/P(F/S)=  3/ 7 SWL H/P/D(F/S/D)=  2/100/ 8


END


USA.gov is the U.S. government's official web portal to all federal, state and local government web resources and services.